User: anonymous
Location: Unspecified
(0.0000°N, 0.0000°E)
Time: 18:18:29
(UTC+00:00)
Language:

NAVSTAR 64 (USA 206) - Orbit

View from above orbital plane
View from above orbital plane
View from above satellite
View from above satellite

Ground track
Ground track

The orbit data is extracted from the following two-line orbital elements,

1 35752U 09043A   14273.39082613  .00000006  00000-0  00000+0 0  9161
2 35752 054.2567 199.6853 0037920 016.9301 055.0865 02.00560590 37551
Epoch (UTC): 30 September 2014 09:22:47
Eccentricity: 0.0037920
inclination: 54.2567°
perigee height: 20081 km
apogee height: 20283 km
right ascension of ascending node: 199.6853°
argument of perigee: 16.9301°
revolutions per day: 2.00560590
mean anomaly at epoch: 55.0865°
orbit number at epoch: 3755

The dashed part of the orbit path shows where the satellite is in the earth's shadow,  

DLR